Torna al catalogo

STARLINK-34669

AttivoComunicazioniVLEO
NORAD 64811·PAYLOAD·🇺🇸 United States

Lanciato Jul 16, 2025 da Vandenberg Space Force Base

Loading…

Prossimi Passaggi (prossime 24 ore)

TLE

AggiornatoSource: CelesTrak SupGP

Epoca: Sep 15, 2026, 03:22 UTC

1 64811C 25150X   26258.14076389  .00050014  00000+0  41920-2 0  2589
2 64811  70.0030  16.6366 0003129 267.8263 257.4631 14.98299730    10

Traccia STARLINK-34669 in tempo reale con AllMySat

Download on the App Store